Starlink 31546

operational
NORAD ID: 59470 Int'l Des: 2024-068 Owner: SPXS Country: US Constellation: starlink
LEOCIRCULAR

Starlink 31546について

説明を読み込み中...

リアルタイム位置

3D地球を読み込み中...

次回通過

高度履歴

Altitude vs Time

uPlot chart will show altitude changes over time

軌道要素

1 59470U 24068R 25258.18679345 .00000734 00000-0 36181-4 0 9997
2 59470 43.0037 302.0532 0001137 259.2289 100.8435 15.27579890 81720
Epoch: Sep 15, 2025 • Age: 25 hours

現在のステータス

高度 488.2 km
速度 7.62 km/s
衛星直下点 -23.37°S, 168.23°W
打ち上げ日 Apr 10, 2024
運用期間 1.4 years
タイプ internet

技術仕様

分類 Payload
質量 730.00 kg
乾燥質量 700.00 kg
総質量 730.00 kg
長さ 0.30 m
直径 4.10 m
スパン 29.00 m
形状 Box + pan
製造者 SPXS
バスタイプ Starlink V2M
フェーズステータス In Orbit
所有者/国 SPXS/US

大規模コンステレーション

Loading constellations...